Glendale Luke AFB, AZ

9:08 PM MST on October 23, 2017 (GMT -0700)
Luke Air Force Base

Weather History for KLUF - July, 2013

Change the Weather History Date:

Monday, July 8, 2013

  Actual Average Record
Temperature  
Mean Temperature 100 °F -  
Max Temperature 113 °F 107 °F 118 °F (1958)
Min Temperature 86 °F 74 °F 61 °F (1955)
Cooling Degree Days 34    
Growing Degree Days 50 (Base 50)    
Moisture  
Dew Point 55 °F    
Average Humidity 23    
Maximum Humidity 42    
Minimum Humidity 10    
Precipitation  
Precipitation 0.02 in - - ()
Sea Level Pressure  
Sea Level Pressure 29.74 in    
Wind  
Wind Speed 9 mph (SSW)    
Max Wind Speed 20 mph    
Max Gust Speed 23 mph    
Visibility 10 miles    
Events      
Averages and records for this station are not official NWS values.
T = Trace of Precipitation, MM = Missing Value Source: NWS Daily Summary

Daily Weather History Graph

Daily Weather History Graph

Search for Another Location

Airport or City:

Trip Planner

Search our weather history database for the weather conditions in past years. The results will help you decide how hot, cold, wet, or windy it might be!

Date:

Astronomy

Jul. 08, 2013 Rise Set
Actual Time 5:26 AM MST 7:42 PM MST
Civil Twilight 4:58 AM MST 8:11 PM MST
Nautical Twilight 4:23 AM MST 8:45 PM MST
Astronomical Twilight 3:44 AM MST 9:23 PM MST
Moon 5:54 AM MST (7/8) 7:52 PM MST (7/8)
Length of Visible Light 15h 12m
Length of Day
14h 15m
New Moon, 0% of the Moon is Illuminated
Jul 8
New Moon
Jul 15
First Quarter
Jul 22
Full
Jul 29
Last Quarter
Aug 6
New

Hourly Weather History & Observations

Time (MST) Temp. Heat Index Dew Point Humidity Pressure Visibility Wind Dir Wind Speed Gust Speed Precip Events Conditions
12:58 AM 97.7 °F - 52.0 °F 21% 29.70 in 10.0 mi ESE 12.7 mph - N/A   Partly Cloudy
1:58 AM 95.2 °F 94.3 °F 58.3 °F 29% 29.71 in 10.0 mi SE 9.2 mph - N/A   Clear
2:58 AM 93.2 °F 92.2 °F 58.5 °F 31% 29.73 in 10.0 mi Calm Calm - N/A   Clear
3:58 AM 88.7 °F 87.8 °F 58.3 °F 36% 29.73 in 10.0 mi NW 6.9 mph - N/A   Clear
4:58 AM 88.9 °F 88.3 °F 59.5 °F 37% 29.75 in 10.0 mi NW 4.6 mph - N/A   Scattered Clouds
5:58 AM 86.7 °F 86.8 °F 60.8 °F 42% 29.76 in 10.0 mi North 5.8 mph - N/A   Partly Cloudy
6:58 AM 91.0 °F 90.9 °F 61.0 °F 36% 29.78 in 10.0 mi NNE 8.1 mph - N/A   Clear
7:58 AM 97.7 °F 97.6 °F 59.0 °F 28% 29.80 in 10.0 mi East 9.2 mph - N/A   Partly Cloudy
8:58 AM 100.8 °F 100.8 °F 59.4 °F 25% 29.81 in 10.0 mi East 12.7 mph - N/A   Partly Cloudy
9:58 AM 102.2 °F 101.9 °F 57.7 °F 23% 29.80 in 10.0 mi Variable 6.9 mph - 0.02 in   Partly Cloudy
10:58 AM 103.8 °F 104.4 °F 58.6 °F 23% 29.80 in 10.0 mi SSE 4.6 mph - N/A   Partly Cloudy
11:58 AM 105.3 °F 105.3 °F 58.5 °F 21% 29.78 in 10.0 mi Variable 3.5 mph - N/A   Clear
12:58 PM 107.1 °F 106.7 °F 57.2 °F 19% 29.76 in 10.0 mi Variable 5.8 mph - N/A   Partly Cloudy
1:58 PM 108.7 °F - 52.7 °F 16% 29.74 in 10.0 mi Variable 1.2 mph - N/A   Partly Cloudy
2:58 PM 111.6 °F - 50.7 °F 13% 29.71 in 10.0 mi SW 10.4 mph - N/A   Clear
3:58 PM 112.6 °F - 49.5 °F 12% 29.68 in 10.0 mi SSW 13.8 mph 20.7 mph N/A   Clear
4:58 PM 112.3 °F - 49.3 °F 12% 29.67 in 10.0 mi WSW 12.7 mph - N/A   Clear
5:20 PM 113.0 °F - 46.4 °F 11% 29.71 in 10.0 mi WSW 15.0 mph - N/A   Clear
5:58 PM 112.5 °F - 44.6 °F 10% 29.66 in 10.0 mi SW 12.7 mph - N/A   Clear
6:58 PM 111.0 °F - 46.8 °F 12% 29.66 in 10.0 mi South 13.8 mph - N/A   Clear
7:58 PM 106.9 °F - 50.9 °F 16% 29.68 in 10.0 mi SSW 9.2 mph - N/A   Clear
8:58 PM 104.4 °F 102.8 °F 55.0 °F 19% 29.72 in 10.0 mi SW 15.0 mph - N/A   Scattered Clouds
9:29 PM 104.0 °F 102.9 °F 55.4 °F 20% 29.80 in 10.0 mi South 13.8 mph - N/A   Mostly Cloudy
9:58 PM 103.1 °F 103.3 °F 58.3 °F 23% 29.77 in 10.0 mi South 15.0 mph - N/A   Mostly Cloudy
10:08 PM 102.2 °F 102.4 °F 59.0 °F 24% 29.82 in 10.0 mi SSE 19.6 mph 23.0 mph N/A   Scattered Clouds
10:58 PM 99.0 °F 99.0 °F 59.5 °F 27% 29.78 in 10.0 mi SSW 15.0 mph - N/A   Clear
11:58 PM 97.0 °F 96.9 °F 59.4 °F 29% 29.79 in 10.0 mi SSW 12.7 mph - N/A   Clear